Wind_Speed
30 29 28 28 28 28 27 27 26 26 26 25 25 25 26 26 26 26 26 25 24 24 25 27 28 28 28 27 26 26 26 26 26 26 27 28 29 30 30 30 28 26 24 22 21 20 19 19 18 18 17 16 15 15 14 14 14 14 13 13 13 12 12 12 11 11 11 11 11 12 12 13 13 13 12 12 12 12 12 13 13 14 14 14 14 13
30 29 28 28 28 28 28 27 26 26 26 26 26 26 26 26 26 26 26 25 24 24 25 26 28 28 28 28 27 27 27 27 26 26 26 27 28 28 29 28 26 24 22 21 20 19 19 18 18 17 16 15 14 14 14 13 13 13 13 13 13 12 12 12 12 11 11 11 12 12 13 13 13 13 13 13 13 13 13 13 14 14 14 14 14 14
29 29 28 28 28 28 28 27 27 26 26 26 26 26 26 26 26 26 26 25 24 24 24 26 27 28 29 28 29 29 29 28 27 26 26 26 26 27 27 26 24 22 21 20 19 19 18 18 17 16 15 14 14 13 13 13 13 13 12 12 12 12 12 12 12 12 12 12 12 12 12 13 13 13 13 13 13 13 13 13 14 14 14 14 14 14
29 29 29 28 28 28 28 27 27 27 27 27 27 27 27 27 27 27 26 25 24 24 24 26 27 29 30 30 31 31 31 30 29 27 26 25 25 25 25 23 22 20 20 19 19 18 17 17 16 15 14 13 13 13 13 13 12 12 12 12 12 12 12 12 12 12 12 12 12 12 12 13 13 13 13 13 13 14 14 14 14 14 14 14 14 14
29 29 29 29 29 28 28 28 28 27 27 27 27 27 27 27 27 27 27 26 25 25 25 26 28 30 31 32 33 34 33 32 30 27 25 24 24 24 23 21 20 19 19 18 18 17 17 16 15 14 13 13 13 13 13 12 12 12 12 12 12 12 12 12 12 12 12 12 12 12 12 13 13 13 13 14 14 14 14 14 14 14 14 14 14 14
29 29 29 30 29 29 28 28 28 28 28 28 27 27 27 27 27 27 27 27 27 27 27 27 29 30 32 33 34 34 34 32 29 26 24 23 22 22 21 20 19 18 18 17 17 16 15 15 14 13 13 12 13 13 12 12 12 12 12 12 12 12 12 12 12 12 12 12 12 12 13 13 13 13 13 14 14 14 14 14 14 14 14 14 14 13
30 30 30 30 30 29 29 29 28 28 28 28 28 27 27 27 28 28 28 28 28 28 28 29 29 30 31 32 33 33 31 29 26 24 22 21 21 20 19 18 18 18 17 16 16 15 14 13 13 13 13 13 12 12 12 12 12 12 12 12 12 12 12 12 12 12 12 12 12 12 13 13 13 13 13 14 14 14 14 14 14 14 14 14 13 13
31 31 30 30 30 30 30 29 29 29 29 29 29 28 28 28 28 28 28 28 28 28 28 29 29 29 30 30 30 30 28 25 23 22 21 20 19 19 18 18 17 17 16 15 15 14 13 13 13 13 13 13 12 12 12 12 12 12 12 12 12 12 12 12 12 12 12 12 12 13 13 13 13 13 13 13 14 14 14 14 14 14 13 13 13 13
32 32 31 31 30 30 30 30 29 29 29 29 29 29 29 29 29 28 28 28 28 28 28 28 28 28 28 28 28 27 25 23 22 20 19 19 18 18 17 17 16 16 15 14 14 13 13 13 13 13 13 13 12 12 12 12 12 12 12 12 12 12 12 12 12 12 12 13 13 13 13 13 13 13 13 13 13 13 13 13 13 13 13 13 13 13
33 32 32 31 31 30 30 30 30 29 29 30 30 30 29 29 29 29 29 28 28 28 28 28 27 27 27 26 26 25 23 22 20 19 18 18 17 17 16 16 15 15 14 14 14 14 14 14 14 13 13 13 12 12 12 13 13 13 12 12 12 12 12 12 13 13 13 13 13 13 13 13 13 13 13 13 13 13 13 13 13 13 13 13 13 13
33 32 32 31 31 31 30 30 30 30 30 30 30 30 30 29 30 30 29 29 28 28 27 27 27 27 26 25 24 23 22 21 20 19 18 17 17 16 16 16 15 15 15 15 15 15 14 14 13 13 13 13 12 12 13 13 13 13 13 13 13 13 13 13 13 13 13 13 13 13 13 13 13 13 13 13 13 13 13 13 13 13 13 13 13 13
33 32 32 32 31 31 30 30 30 30 30 30 30 30 30 30 30 30 30 29 28 28 27 26 26 26 25 24 23 22 20 20 19 18 17 17 17 17 16 16 16 15 16 16 16 15 15 14 13 13 13 13 13 13 13 13 13 13 13 13 13 13 13 13 13 13 13 13 13 13 13 13 13 13 13 13 12 12 12 12 12 12 12 13 13 13
33 32 32 32 31 31 31 30 30 30 30 30 30 30 30 30 30 30 30 30 28 27 26 26 25 25 24 23 22 21 20 19 18 18 18 17 17 17 16 16 16 16 17 16 16 15 14 14 13 13 13 13 13 13 13 13 13 13 13 13 13 13 13 13 13 13 13 13 13 13 13 13 13 12 12 12 12 12 12 12 12 12 12 13 13 13
33 33 32 32 31 31 30 30 30 30 30 30 30 30 30 30 30 30 30 29 28 27 26 25 25 24 23 22 20 20 19 18 18 18 18 18 17 17 17 17 17 17 17 16 15 15 14 13 13 13 13 13 13 13 13 13 13 13 13 13 13 13 13 13 13 13 13 13 13 13 13 13 12 12 12 12 12 12 12 12 12 12 13 13 13 13
33 33 32 32 31 31 30 30 30 31 30 30 30 30 30 30 30 30 30 29 27 26 25 24 24 23 22 20 20 19 18 18 18 18 18 18 17 17 17 17 17 17 16 15 15 14 14 13 13 13 13 13 13 13 13 13 13 13 13 13 13 13 13 13 13 13 13 13 13 13 13 13 12 12 12 12 12 12 13 12 13 13 13 13 13 13
33 33 33 32 32 31 30 30 30 31 31 31 30 30 30 30 30 30 29 28 27 25 25 24 23 21 21 20 19 19 18 18 18 18 18 17 17 17 17 16 16 16 15 15 14 14 14 13 13 13 13 13 13 13 13 13 13 13 13 13 13 13 13 13 13 13 13 13 13 13 13 13 13 13 13 13 13 13 13 13 13 13 13 13 13 13
33 33 33 32 32 31 31 30 30 31 31 31 30 30 30 30 30 29 28 27 26 25 24 23 21 20 20 19 19 19 19 18 18 17 17 17 16 16 16 15 15 15 15 14 14 14 14 14 14 14 14 14 14 13 13 13 13 13 13 13 13 13 13 13 13 13 13 13 13 13 13 13 13 13 13 13 13 13 13 13 13 13 13 14 14 14
34 33 33 33 32 32 31 30 30 30 31 30 30 30 30 30 29 28 27 26 25 24 23 22 21 20 19 19 19 20 19 19 18 17 16 16 15 15 15 15 14 14 14 14 14 14 14 14 14 14 14 14 14 13 13 13 13 13 13 13 13 13 13 13 13 13 13 13 13 13 13 13 13 13 13 14 14 14 14 14 14 14 14 14 14 14
34 33 33 33 32 32 31 30 30 30 30 30 30 30 30 29 28 27 26 25 24 23 22 21 20 19 19 19 19 20 19 18 17 16 16 15 15 15 14 14 14 14 14 14 14 14 14 14 14 14 14 14 13 13 13 13 13 13 13 13 13 13 13 13 13 13 13 13 13 13 13 13 14 14 14 14 14 14 14 14 14 14 14 14 15 15
34 33 33 33 32 32 31 30 30 30 30 30 30 29 29 28 27 26 25 24 23 23 22 21 20 19 19 19 19 20 19 17 16 16 15 14 14 14 14 14 14 14 14 14 14 14 14 14 14 14 14 14 13 13 13 13 13 13 13 13 13 13 13 13 13 13 13 13 13 14 14 14 14 14 14 14 14 15 15 15 15 15 15 15 15 16
34 33 32 32 32 32 31 30 30 30 30 30 29 29 28 27 26 25 24 23 23 22 21 20 20 19 19 19 19 19 18 16 15 15 14 14 14 14 14 14 14 14 14 14 14 14 14 14 14 14 14 13 13 13 13 13 13 13 13 13 13 13 14 14 14 14 14 14 14 14 14 14 14 15 15 15 15 15 15 15 15 15 15 16 16 16
33 33 32 32 31 31 31 30 30 29 29 29 29 28 27 26 25 24 23 23 22 21 21 20 19 19 19 19 19 18 16 15 15 14 13 13 13 14 14 14 14 14 14 14 14 14 14 14 14 14 13 13 13 13 13 13 13 13 13 13 14 14 14 14 14 14 14 14 14 14 15 15 15 15 15 15 15 15 15 15 16 16 16 16 17 17
32 32 32 31 31 30 30 30 29 29 29 28 27 27 26 25 24 23 22 22 21 21 20 20 19 19 19 18 18 16 15 14 14 13 13 13 13 14 14 14 14 14 14 14 14 14 14 14 14 14 13 13 13 13 13 13 13 13 13 14 14 14 14 14 14 14 14 14 15 15 15 15 15 15 15 15 15 15 16 16 16 16 17 17 17 18
32 31 31 30 30 30 29 29 29 28 28 27 27 26 25 24 23 22 22 21 21 20 20 20 19 19 18 17 16 15 14 13 13 13 13 13 13 14 14 14 14 13 13 14 14 14 14 14 13 13 13 13 13 13 13 13 13 13 14 14 14 14 14 14 14 14 15 15 15 15 15 15 15 15 15 15 16 16 16 16 17 17 17 18 18 18
30 30 30 29 29 29 29 28 28 28 27 27 26 25 24 23 22 21 21 21 20 20 20 20 19 18 17 16 15 14 13 13 13 13 13 13 13 14 14 14 14 13 13 13 13 13 13 13 13 13 13 13 13 13 13 13 13 14 14 14 14 14 14 14 15 15 15 15 15 15 15 15 15 15 16 16 16 16 16 17 17 17 18 18 18 18
29 29 29 29 28 28 28 28 27 27 26 25 24 23 22 22 21 21 20 20 20 20 19 19 17 16 15 14 13 13 12 12 13 13 13 13 14 14 14 14 13 13 13 13 13 13 13 13 13 13 13 13 13 13 13 13 14 14 14 14 14 14 14 15 15 15 15 15 15 16 16 16 16 16 16 16 16 17 17 17 18 18 18 18 18 19
28 28 28 28 28 27 27 27 26 26 25 24 23 22 21 21 20 20 20 20 19 19 18 17 15 15 14 13 12 12 12 13 14 14 14 14 14 14 14 14 13 13 13 13 13 13 13 13 13 13 13 13 13 13 13 13 14 14 14 14 14 14 15 15 15 15 15 15 16 16 16 16 16 16 16 17 17 17 18 18 18 18 18 19 19 19
27 27 27 27 27 26 26 26 25 24 23 22 21 21 20 20 20 19 19 19 18 17 16 15 14 13 12 12 12 13 13 14 14 15 14 14 14 14 14 14 13 13 13 13 13 13 13 13 13 13 13 13 13 13 13 14 14 14 14 14 14 14 15 15 15 15 15 16 16 16 16 16 17 17 17 17 17 18 18 18 19 19 19 19 19 19
26 25 25 25 25 25 25 24 23 22 21 21 20 20 20 19 19 19 19 18 17 16 15 15 14 14 13 13 13 14 14 15 15 15 14 14 14 14 14 14 13 13 13 13 13 13 13 13 13 13 13 13 13 13 14 14 14 14 14 14 14 15 15 15 15 15 16 16 16 16 17 17 17 17 17 18 18 18 18 19 19 19 19 19 19 19
24 24 24 24 24 24 23 22 21 20 20 19 19 19 19 19 19 18 18 17 17 16 15 15 15 15 15 15 15 15 15 15 15 15 14 14 14 14 14 13 13 13 13 13 13 13 13 13 13 13 13 13 13 14 14 14 14 14 14 14 15 15 15 15 15 16 16 16 16 17 17 17 17 18 18 18 18 18 19 19 19 19 19 19 19 19
23 23 23 23 22 22 21 20 20 19 19 19 18 18 18 18 18 18 18 17 17 16 16 16 16 16 15 15 15 15 15 15 15 15 14 14 14 14 14 13 13 13 13 13 13 13 13 13 13 13 13 13 14 14 14 14 14 14 14 15 15 15 16 16 16 16 16 17 17 17 17 17 18 18 18 18 18 18 19 19 19 19 19 19 19 19
22 21 21 21 21 20 19 19 18 18 18 18 18 18 18 18 18 18 18 17 17 17 17 17 17 16 16 16 15 15 15 15 14 14 14 14 14 14 14 13 13 13 13 13 13 13 13 13 13 13 14 14 14 14 15 15 15 15 15 15 16 16 16 16 16 17 17 17 17 17 17 17 17 18 18 18 18 18 18 19 19 19 19 19 19 19
20 20 20 19 19 18 18 18 18 17 17 17 17 17 18 18 18 18 18 17 17 17 17 17 17 16 16 16 15 15 15 14 14 14 14 14 13 14 14 13 13 13 13 13 13 13 13 13 14 14 14 14 15 15 15 15 15 15 16 16 16 16 17 17 17 17 17 17 17 17 17 17 17 17 17 18 18 18 18 19 19 19 19 19 19 19
19 19 18 18 18 17 17 17 17 17 17 17 17 17 18 18 18 18 17 17 17 17 17 17 16 16 16 15 15 14 14 14 14 14 14 14 13 13 13 13 13 13 13 13 13 13 14 14 14 15 15 15 15 15 15 15 16 16 16 16 16 16 17 17 17 17 17 17 17 17 17 17 17 17 17 17 17 18 18 19 19 19 19 19 19 19
18 18 17 17 17 17 17 17 17 17 17 17 17 18 19 19 18 18 17 17 17 17 17 16 16 16 15 15 15 14 14 14 14 14 14 14 14 13 13 13 13 13 13 13 13 14 14 14 15 15 15 15 15 15 15 15 15 16 16 16 16 16 17 17 17 17 16 16 16 17 17 17 17 17 17 17 17 18 18 19 19 19 20 20 20 20
17 17 17 16 16 17 17 17 17 17 17 18 18 19 19 19 18 18 18 18 17 17 16 16 16 15 15 15 15 14 14 14 14 14 14 14 14 14 13 13 13 13 13 13 14 14 14 14 14 14 15 15 15 15 15 15 15 15 16 16 16 16 16 16 16 16 16 16 16 16 17 17 17 17 17 18 18 18 19 19 20 20 20 21 21 21
16 16 16 16 16 17 17 17 17 18 18 19 19 19 19 19 19 18 18 18 17 17 16 16 16 15 15 15 15 15 14 14 14 14 14 14 14 14 14 14 14 14 13 13 14 14 14 14 14 14 14 15 15 15 15 15 15 15 15 16 16 16 16 16 16 16 16 16 16 17 17 17 18 18 18 18 19 19 19 20 20 21 21 22 22 22
16 16 16 16 17 17 17 18 18 19 19 19 20 20 20 19 19 19 18 17 17 16 16 16 16 15 15 15 15 15 15 14 14 14 14 14 14 14 14 14 14 14 13 13 13 13 13 14 14 14 14 14 15 15 15 15 15 15 16 16 16 16 16 16 16 16 16 16 17 17 17 18 18 19 19 19 19 20 20 20 21 21 22 22 23 23
16 16 16 17 17 18 18 19 19 20 20 20 20 20 20 20 19 18 18 17 16 16 16 16 16 16 15 15 15 15 15 15 14 14 14 14 14 14 14 14 14 13 13 13 13 13 13 13 14 14 14 15 15 15 16 16 16 16 16 16 16 16 16 16 16 16 16 16 17 17 18 18 19 19 19 20 20 20 20 21 21 22 22 22 23 23
16 17 17 17 18 18 19 20 20 20 20 20 20 20 20 19 19 18 17 17 16 16 16 16 16 16 15 15 15 15 15 15 15 15 15 15 14 14 14 14 14 13 13 13 13 13 13 13 14 14 14 15 15 16 16 16 16 16 16 16 16 17 17 16 16 16 16 16 17 17 18 19 19 19 20 20 20 21 21 21 22 22 22 23 23 23
17 17 18 18 19 19 20 20 21 21 20 20 20 20 19 19 18 18 17 17 16 16 16 16 16 16 15 15 15 15 15 15 15 15 15 15 15 14 14 14 14 14 14 13 14 14 14 14 14 14 15 15 15 16 16 16 17 16 16 16 16 17 17 17 17 17 17 17 17 18 18 19 20 20 20 21 21 21 21 22 22 22 23 23 23 23
18 18 18 19 19 20 20 21 21 20 20 20 20 19 19 18 18 17 17 17 16 16 16 16 16 16 15 15 15 15 15 15 15 15 15 15 15 15 15 14 14 14 14 14 14 14 14 14 15 15 15 15 16 16 16 17 17 17 17 16 16 17 17 17 17 17 17 18 18 19 19 20 20 21 21 21 21 22 22 22 22 22 23 23 24 24
19 19 19 20 20 20 20 20 20 20 20 19 19 19 19 18 18 17 17 17 16 16 16 16 16 16 16 16 16 16 16 16 16 15 15 15 15 15 15 15 15 15 15 15 15 16 15 16 15 16 16 16 16 16 17 17 17 17 17 17 17 17 17 18 18 19 19 19 19 20 20 20 21 21 21 22 22 22 22 22 23 23 24 24 24 25
19 20 20 20 20 20 20 20 20 19 19 19 19 19 18 18 18 17 17 17 17 16 16 16 16 16 16 16 16 16 16 16 16 16 16 16 16 16 16 16 17 17 17 17 17 17 17 17 17 17 17 17 17 17 17 17 17 17 17 17 17 17 17 18 19 20 20 20 21 21 21 21 22 22 22 23 23 23 23 23 24 24 25 25 25 25
20 20 20 20 20 20 20 19 19 19 19 19 19 18 18 18 18 17 17 17 17 16 16 16 16 16 16 16 16 16 16 16 16 17 17 17 17 17 17 18 18 18 18 18 18 18 18 18 18 18 18 18 17 18 18 18 18 18 18 18 17 17 18 18 19 20 21 21 22 22 22 22 22 23 23 23 24 24 25 25 25 25 26 26 26 26
20 21 21 20 20 20 19 19 19 19 19 19 19 18 18 18 18 17 17 17 17 17 16 16 16 16 17 17 17 17 17 17 17 17 17 18 18 18 18 19 19 19 19 19 19 19 18 18 18 18 18 18 18 18 18 18 18 18 18 18 18 18 19 19 20 21 21 22 22 22 23 23 23 23 24 24 25 25 26 26 26 27 27 27 27 27
21 21 21 20 20 20 19 19 19 19 19 19 19 19 19 18 18 18 17 17 17 17 17 17 17 17 17 17 17 17 17 18 18 18 18 19 19 19 19 19 19 19 19 19 19 19 19 19 19 19 19 19 19 19 19 19 19 19 19 19 19 19 20 20 21 21 22 22 22 23 23 24 24 24 25 25 26 26 27 27 28 28 28 28 28 28
22 22 21 20 20 20 19 19 19 19 19 19 19 19 19 18 18 18 18 17 17 17 17 17 18 18 18 18 18 18 18 18 19 19 19 19 20 20 20 20 20 20 20 20 20 20 20 20 20 19 19 19 19 19 20 20 20 19 20 20 20 20 21 21 22 22 22 22 22 23 24 24 25 25 26 26 27 27 28 28 29 29 29 29 29 29
22 22 21 21 20 20 20 20 20 20 20 20 19 19 19 19 18 18 18 18 18 18 18 18 18 18 18 18 19 19 19 19 19 20 20 20 20 20 20 20 20 20 20 20 20 20 20 20 20 20 20 19 19 19 20 20 20 20 21 21 21 22 22 22 22 23 23 23 23 23 24 25 25 26 27 27 27 28 28 29 29 30 30 30 30 30
23 22 21 21 20 20 20 20 20 20 20 20 20 20 19 19 19 18 18 18 18 18 18 18 18 18 18 19 19 19 19 19 20 20 20 20 20 20 20 20 20 20 20 20 20 20 20 20 20 20 20 20 20 20 20 21 21 22 22 22 23 23 23 23 23 23 23 23 23 24 25 25 26 27 27 27 28 28 28 29 29 30 30 31 31 31
23 22 22 21 21 21 21 21 21 21 20 20 20 20 19 19 19 19 18 18 18 18 19 19 19 19 19 19 19 19 19 20 20 20 20 20 20 20 21 21 21 21 21 21 21 20 20 20 20 21 21 21 21 20 20 21 22 23 23 23 24 24 24 24 24 24 24 24 24 25 25 26 27 27 28 28 28 28 28 28 29 30 30 31 31 31
Wind_Direction
297 297 297 297 297 296 295 295 294 294 293 292 291 290 290 289 288 287 286 284 282 279 277 277 277 278 278 279 281 282 282 280 279 280 283 286 288 288 288 288 288 287 286 283 281 279 277 275 273 271 269 266 262 259 256 254 252 252 252 252 252 252 252 253 253 252 251 250 251 252 254 255 257 258 259 259 259 259 260 261 263 265 267 268 269 270
295 296 296 296 295 294 294 294 294 293 292 292 291 291 290 289 288 287 286 284 281 279 279 279 278 278 278 279 280 281 282 282 283 286 288 289 288 287 286 286 286 285 283 280 278 276 275 274 272 270 268 264 260 256 253 250 249 248 248 249 250 250 251 251 251 251 250 250 250 251 253 256 258 259 260 260 260 260 261 262 264 265 267 268 269 270
294 294 294 294 293 293 293 293 293 292 291 291 291 290 290 289 288 286 285 282 280 279 278 278 277 277 278 278 280 281 282 284 288 292 292 290 287 285 284 285 285 283 281 278 276 274 273 272 270 268 265 261 258 255 251 249 248 247 247 247 248 248 249 250 250 250 250 250 250 252 254 256 258 260 261 261 261 262 262 263 264 265 267 268 269 270
292 293 293 292 292 292 292 292 292 291 290 290 290 289 289 288 287 285 284 282 279 276 275 274 275 275 277 278 280 281 283 287 292 294 293 288 285 283 283 284 283 281 279 276 274 272 271 269 266 264 261 258 254 252 250 249 248 247 247 247 247 248 249 250 250 250 251 251 252 253 254 256 258 260 261 262 263 263 264 264 265 265 266 267 269 270
291 291 291 291 291 291 291 291 290 290 289 289 288 288 288 287 286 285 284 282 279 275 272 270 271 272 275 277 279 281 284 288 292 292 290 286 283 283 283 283 281 279 276 274 272 271 269 266 263 260 257 254 251 249 248 247 247 247 247 247 248 248 249 250 251 251 252 252 252 253 255 256 258 259 261 262 263 264 265 265 265 266 266 267 268 269
289 289 289 290 290 290 290 290 289 289 289 288 287 287 286 286 285 284 284 282 280 277 274 271 270 271 273 275 278 280 283 287 289 289 287 284 283 282 282 281 278 276 274 272 270 268 266 263 260 257 254 251 248 246 245 245 245 246 246 247 248 248 249 250 251 251 252 252 253 254 255 256 257 259 260 262 263 264 265 265 266 266 266 267 268 269
288 288 288 288 289 289 289 289 289 288 288 287 287 286 285 284 284 284 283 282 281 280 278 276 275 274 275 276 278 280 283 286 287 286 284 282 281 281 280 278 276 274 272 270 268 266 263 260 257 255 252 249 246 245 244 244 244 245 245 246 247 248 248 249 250 251 252 253 254 255 256 257 257 259 260 261 262 263 264 265 265 266 266 267 268 269
287 287 287 287 287 288 287 287 287 287 287 287 286 286 285 284 284 283 283 283 282 281 280 279 279 278 278 279 280 282 284 285 285 284 282 281 280 278 276 274 273 271 270 268 266 264 261 258 255 252 250 247 245 244 243 243 244 244 245 246 247 247 248 249 250 251 252 253 254 255 256 257 258 259 260 260 261 262 263 264 264 265 266 266 267 268
286 286 286 286 286 286 286 286 286 286 286 286 286 286 286 285 285 284 283 283 283 282 282 281 281 280 280 281 282 283 284 284 284 282 280 279 277 275 273 271 270 269 268 266 265 262 259 255 252 249 247 245 243 243 243 243 244 245 245 246 247 247 248 249 250 251 253 254 255 255 256 257 258 258 259 260 261 261 262 263 263 264 265 266 266 267
286 286 286 286 285 285 285 285 285 285 284 284 284 285 285 286 286 285 284 283 282 282 282 281 281 281 281 281 282 283 283 283 282 280 278 276 273 271 269 268 268 267 266 265 263 260 256 253 250 246 244 243 242 242 242 243 244 245 245 246 247 248 248 249 250 252 253 254 255 256 256 257 258 258 259 259 260 260 261 262 263 264 265 265 266 266
286 286 286 285 285 284 284 284 284 284 283 283 284 284 284 285 285 285 283 282 281 281 281 281 281 281 281 281 281 281 281 280 279 277 275 273 270 268 266 266 265 265 263 262 260 257 255 251 247 244 242 241 240 241 241 243 244 244 245 246 247 248 249 250 251 252 253 254 255 255 256 257 257 257 258 259 259 260 260 261 262 263 264 265 266 266
285 285 285 285 284 283 282 282 282 282 282 282 283 284 284 284 283 283 282 281 281 281 280 280 280 279 279 279 279 278 277 277 276 274 272 270 268 266 265 264 264 263 261 260 258 256 252 248 244 242 240 239 239 240 241 242 243 244 245 246 247 248 249 250 251 252 253 254 255 255 256 256 257 257 258 258 259 260 260 261 262 263 264 265 266 266
285 285 284 284 283 282 281 281 280 280 280 281 281 282 282 282 281 281 281 281 281 281 280 279 278 277 277 276 275 274 273 272 272 271 269 267 265 264 263 263 262 262 260 259 256 252 248 245 242 240 239 239 240 240 241 241 242 243 244 245 247 248 249 250 251 252 253 254 254 255 255 256 256 257 258 258 259 260 261 262 263 264 265 266 266 267
284 284 283 282 281 281 280 280 279 279 279 279 279 280 280 280 280 280 281 281 281 280 278 277 276 275 274 273 271 270 268 268 268 268 267 266 264 263 262 261 261 260 259 256 252 248 245 242 240 239 239 240 240 240 241 241 242 243 244 245 247 248 249 250 251 252 253 254 254 255 255 256 256 257 258 259 260 261 262 263 263 264 265 266 267 268
282 282 282 281 280 279 278 278 278 278 278 278 278 278 279 280 280 280 281 281 280 279 276 275 274 272 271 269 267 266 265 265 266 266 265 265 264 262 261 260 259 258 255 252 248 244 242 241 240 240 240 240 241 241 241 241 242 243 244 245 247 248 249 251 251 253 253 254 255 255 256 257 258 259 260 261 262 263 263 264 265 265 266 267 268 269
281 280 280 279 278 277 277 276 276 276 276 277 277 278 279 279 280 280 280 280 279 277 274 272 271 269 267 265 263 262 262 263 264 264 264 263 262 261 259 258 256 253 250 247 244 242 241 241 241 241 241 241 241 241 242 242 243 244 245 246 247 249 250 251 252 253 254 255 255 256 257 258 259 261 261 263 264 265 265 266 266 267 267 268 269 270
279 278 278 277 276 276 275 275 274 275 275 276 277 277 278 278 279 279 279 279 277 275 272 270 267 265 263 262 261 261 261 262 262 262 261 261 260 258 256 254 251 248 246 243 242 242 242 242 242 242 243 243 243 243 243 243 244 245 246 247 249 250 252 253 254 255 256 256 257 258 259 260 262 263 264 265 266 266 267 268 268 269 269 270 271 271
277 276 275 275 274 274 273 273 273 274 275 275 276 277 277 278 278 279 279 277 275 272 270 267 264 261 259 258 258 260 260 261 260 259 258 257 256 253 251 249 246 244 243 242 242 242 242 243 243 244 244 244 244 244 244 245 246 247 249 250 251 253 254 255 256 257 258 258 260 261 262 263 264 265 266 267 268 269 269 270 271 271 272 272 273 273
275 274 273 272 272 272 272 272 272 273 274 274 275 276 276 277 278 278 277 275 272 269 266 263 261 258 256 256 257 259 260 260 258 256 255 253 250 248 246 244 242 241 241 242 242 243 244 244 245 245 245 245 245 245 246 247 249 250 251 253 254 255 257 258 258 259 260 261 262 263 264 265 267 267 268 269 270 271 271 272 273 273 274 274 274 275
272 271 270 270 270 270 271 271 272 272 273 274 274 275 276 277 277 276 274 272 269 266 263 261 258 256 255 255 256 258 258 257 254 252 250 247 245 243 242 241 240 241 241 242 243 244 244 245 245 246 246 246 247 248 249 250 251 253 254 256 257 258 259 260 261 262 262 263 265 266 267 268 268 269 270 271 271 272 273 274 274 275 275 275 276 276
270 269 268 268 268 269 270 270 271 271 272 273 273 274 275 275 274 273 271 268 266 263 261 258 256 255 254 254 254 255 254 252 249 246 243 241 239 239 239 239 240 241 242 243 243 244 244 245 245 246 247 248 249 250 251 252 254 255 257 258 259 260 261 262 263 264 265 265 267 267 268 269 270 270 271 272 273 273 274 274 275 275 275 276 277 277
268 267 266 266 266 267 269 270 270 271 271 272 272 273 273 272 271 269 267 265 263 260 258 256 254 253 252 252 251 250 248 245 242 240 238 236 236 237 238 239 240 241 242 242 243 244 244 245 246 246 247 249 250 251 253 254 256 257 258 259 261 261 262 263 264 265 266 267 268 268 269 270 270 271 272 272 273 274 274 274 275 275 276 276 277 277
267 266 265 265 265 265 267 268 269 269 270 270 270 270 270 269 268 266 264 262 260 258 256 254 253 251 250 248 246 244 241 238 236 235 234 233 234 236 238 239 240 241 241 242 242 243 244 245 246 247 248 250 251 253 254 255 257 258 259 260 261 262 263 264 265 266 267 268 268 269 270 270 270 271 272 272 273 273 274 274 275 275 276 276 277 278
265 264 264 263 263 264 265 266 267 268 268 268 268 268 268 266 265 263 261 260 258 256 254 252 250 248 246 243 240 237 235 234 234 234 234 233 234 236 238 239 240 240 240 242 242 243 244 245 246 248 249 251 252 254 255 257 258 259 260 261 262 263 264 265 266 267 268 268 269 269 270 270 270 271 272 272 273 273 273 274 275 275 276 277 278 279
263 262 262 261 262 262 263 264 265 266 266 266 266 266 265 264 262 261 259 257 254 252 250 249 246 244 240 237 234 233 232 234 235 236 235 235 236 237 239 240 239 239 240 241 242 243 244 246 247 249 250 252 254 255 256 258 259 260 261 262 263 264 265 266 267 267 268 268 269 269 270 270 270 271 271 272 272 273 273 274 275 275 277 277 278 279
262 261 260 260 260 261 262 263 264 264 265 265 264 263 262 261 259 257 255 253 251 249 246 244 241 236 232 229 229 231 232 236 238 239 238 236 236 237 239 240 239 239 240 241 242 244 245 247 249 251 252 253 255 256 257 258 260 261 261 263 264 264 265 266 267 267 268 268 269 269 270 270 270 271 271 272 272 273 273 274 275 276 277 277 278 279
260 259 259 258 259 260 261 262 262 263 263 263 262 261 259 258 256 253 251 248 246 243 240 235 230 226 223 223 226 230 234 237 240 240 239 237 237 237 239 240 239 239 240 242 243 245 246 248 249 252 253 255 256 258 258 260 261 261 262 263 264 265 266 267 267 268 268 269 269 270 270 270 271 271 271 272 272 273 273 274 275 275 276 277 278 278
259 258 257 257 258 259 260 261 261 261 261 260 259 258 256 254 251 248 245 242 239 233 228 222 217 216 218 221 226 231 235 238 239 240 240 237 236 237 239 239 240 239 240 242 244 246 247 249 251 252 254 256 257 258 259 260 261 262 263 264 265 266 266 267 268 268 269 269 270 270 271 271 271 272 272 272 273 273 274 274 275 276 276 277 277 278
257 256 256 256 257 258 259 259 259 259 258 257 256 254 252 250 246 242 238 234 229 222 216 212 210 211 216 220 226 232 237 238 239 239 238 237 236 237 239 239 240 240 241 243 245 247 248 250 251 253 254 256 258 259 260 261 262 262 264 264 265 266 267 268 268 269 269 270 270 271 271 271 272 272 273 273 273 274 274 275 275 276 276 277 277 278
256 255 255 255 256 256 257 257 257 256 255 253 252 250 247 244 240 235 230 225 218 211 209 209 210 213 217 223 229 234 237 237 238 238 237 235 235 237 238 239 240 241 242 243 245 247 249 250 252 253 254 256 258 259 260 261 262 262 264 264 266 266 267 268 269 269 270 270 270 271 271 272 272 273 273 274 274 274 275 275 276 276 276 277 278 278
254 254 254 254 254 255 254 254 253 252 250 249 247 244 241 237 232 227 221 216 211 207 207 209 213 217 222 229 234 235 235 235 236 236 236 234 234 237 238 238 239 241 242 243 244 246 248 251 252 253 254 256 257 258 259 260 261 262 263 264 265 266 267 268 268 269 270 270 270 271 271 272 272 273 274 274 275 275 276 276 276 277 278 278 279 280
253 252 252 252 252 252 251 250 248 247 245 243 241 238 233 228 223 217 213 211 210 209 210 212 216 221 226 232 234 234 233 232 233 234 234 233 234 236 237 238 238 240 242 243 244 245 247 250 252 254 255 256 256 258 259 259 260 261 262 263 264 265 266 267 268 269 269 270 270 270 271 272 272 273 274 274 275 275 276 277 278 278 279 280 281 281
250 250 250 249 249 248 246 245 243 241 239 237 233 228 223 219 214 211 209 210 212 214 215 218 222 227 231 233 233 232 231 230 231 232 233 233 234 235 237 237 238 240 241 243 245 246 247 250 252 254 255 256 256 257 258 259 259 260 261 262 263 265 266 266 267 268 268 269 270 270 271 272 272 273 274 274 275 276 277 278 279 279 280 281 282 283
248 247 247 246 244 243 241 240 238 235 232 228 224 219 215 211 210 209 210 212 215 218 220 224 228 231 233 233 231 230 229 228 229 231 232 232 233 235 237 237 238 239 241 243 245 248 249 250 252 253 255 256 256 257 257 258 259 260 261 261 262 264 265 266 266 267 268 269 269 270 270 271 272 273 273 274 275 276 277 278 279 280 281 282 282 283
245 244 243 241 240 238 236 234 231 227 224 219 215 212 210 209 209 211 213 215 219 221 224 226 229 230 231 229 228 227 226 227 228 229 231 231 232 234 236 237 238 240 241 244 246 248 249 251 253 254 254 255 256 257 257 258 258 260 261 262 262 263 265 266 266 267 268 269 269 270 271 271 272 273 273 274 275 276 277 278 279 280 281 281 282 282
242 240 239 237 235 233 230 227 223 219 215 212 210 209 209 210 212 214 217 219 222 224 226 228 228 228 228 227 225 224 224 225 227 228 229 230 232 233 235 237 239 240 241 244 246 247 249 251 252 253 254 255 256 257 258 259 260 261 261 263 263 264 265 266 267 268 268 269 270 271 272 272 273 274 274 275 276 277 277 278 279 280 280 281 281 282
238 237 234 232 229 227 223 220 216 213 211 209 209 209 211 213 215 218 220 222 224 225 226 227 227 226 226 225 224 223 224 224 225 227 228 230 231 233 234 236 238 240 241 242 244 246 248 250 252 253 255 256 257 258 259 261 262 262 263 263 264 265 266 267 268 269 270 271 272 272 273 274 274 275 275 276 277 277 278 278 278 279 279 280 280 281
236 233 231 228 225 221 217 214 211 210 209 209 210 212 214 217 219 220 222 223 223 224 224 224 224 224 223 223 222 222 223 223 224 225 227 228 230 231 233 235 237 238 240 241 243 245 247 249 251 253 255 257 259 259 260 262 262 263 263 264 265 265 266 267 268 269 270 271 272 273 274 275 275 276 276 276 277 277 277 277 278 278 278 279 280 280
233 231 227 224 220 216 213 211 209 209 210 211 213 215 218 219 220 221 221 221 221 222 222 222 222 221 221 220 220 220 221 222 223 224 226 227 228 230 232 233 235 237 239 241 243 245 247 250 252 254 256 258 259 261 261 262 262 262 263 265 265 266 266 267 268 269 270 271 272 273 274 274 275 275 275 275 276 276 276 276 277 277 278 278 279 279
232 228 224 221 218 215 212 211 210 211 212 213 215 217 219 219 219 219 219 219 219 219 219 219 219 219 218 218 218 219 220 221 222 223 224 225 227 229 231 232 235 237 239 241 244 246 249 251 254 257 259 260 261 262 263 263 263 263 264 265 265 266 267 268 268 269 270 271 272 273 274 274 274 274 275 275 275 275 276 276 277 277 278 279 279 280
230 226 221 219 217 215 213 211 211 212 213 216 217 218 219 218 218 217 216 217 217 217 217 217 217 216 216 217 217 218 219 220 221 222 223 225 227 229 231 234 236 239 241 243 246 248 251 254 257 259 261 263 264 264 265 265 265 265 266 266 267 269 270 271 271 271 272 273 274 275 275 276 276 276 276 276 276 276 276 277 277 278 279 280 280 280
228 223 219 217 215 214 212 211 212 213 214 216 217 218 217 216 216 215 215 214 214 214 214 214 214 215 215 216 217 218 219 220 221 222 224 226 228 230 233 236 239 241 244 246 249 252 254 257 260 262 264 265 266 266 266 266 267 267 267 268 269 271 273 274 275 275 276 277 277 278 278 278 278 278 278 278 277 277 277 278 278 279 279 280 280 280
225 221 218 216 214 212 211 211 212 213 215 216 217 217 216 215 214 214 213 213 212 212 212 213 213 214 215 217 218 219 220 221 222 224 226 228 231 234 236 239 242 244 247 249 252 255 258 260 263 265 267 268 268 268 268 268 268 268 268 269 270 271 273 276 277 278 279 279 280 280 280 280 280 280 280 279 279 279 278 278 278 278 278 278 279 279
222 219 216 213 211 209 209 211 212 214 215 216 216 215 214 214 213 212 211 211 210 211 211 212 213 215 216 218 219 221 222 223 225 227 230 232 235 237 240 243 245 247 250 252 254 257 260 263 266 267 269 270 270 270 269 269 269 269 269 269 270 271 273 275 277 278 279 280 280 281 281 280 280 280 280 280 280 280 279 278 278 278 278 279 279 279
219 215 212 209 208 208 210 212 213 214 215 215 215 214 213 212 211 210 209 209 209 210 211 213 214 216 218 220 221 223 225 227 229 232 234 237 239 241 244 246 248 250 252 254 257 259 262 265 268 270 271 272 272 272 272 271 271 270 270 270 271 272 272 273 275 276 278 279 280 280 280 280 280 280 280 280 280 280 280 280 280 280 280 280 281 281
214 210 208 207 207 209 211 212 213 214 214 214 214 213 212 211 210 209 209 209 209 211 212 214 216 217 220 221 223 225 227 230 233 236 238 241 243 245 247 249 251 253 255 257 259 262 264 267 269 271 273 274 274 274 273 273 272 271 271 271 271 272 272 273 274 275 276 277 278 279 279 280 280 279 279 279 280 281 281 282 282 282 282 283 283 284
208 206 206 207 209 210 211 212 213 214 214 214 213 212 211 210 209 209 209 210 211 212 214 216 217 219 221 223 225 228 230 233 237 240 242 244 246 248 250 252 254 255 257 259 262 264 267 269 271 272 273 274 274 274 274 274 273 272 272 272 272 272 272 273 274 274 275 276 277 277 278 278 278 279 279 279 280 281 282 283 283 284 284 285 285 286
205 205 206 208 211 212 212 213 213 213 213 213 213 212 211 210 210 210 210 211 213 214 216 218 219 221 223 226 228 231 234 237 240 243 245 247 249 251 252 254 256 257 259 261 264 266 268 270 271 272 272 272 273 274 274 275 274 274 274 274 274 274 274 274 274 275 275 276 276 276 277 277 278 278 279 280 281 282 283 284 285 285 286 286 286 287
205 206 208 210 212 213 213 212 212 213 213 213 213 212 211 211 211 211 212 214 215 217 218 220 222 224 226 228 231 234 237 240 242 245 247 249 251 252 254 255 257 259 261 263 265 266 268 270 271 272 272 272 273 274 275 276 276 277 276 276 276 276 276 276 276 276 276 276 276 276 277 277 278 279 279 280 281 282 283 284 285 286 287 287 287 287
206 208 210 212 213 213 212 212 212 212 213 213 213 213 213 213 213 214 215 216 218 219 221 223 225 227 229 232 234 237 239 242 244 247 249 250 252 254 255 257 259 260 262 263 265 266 268 269 271 272 273 273 274 275 276 277 278 279 279 279 279 279 278 278 278 278 278 278 278 278 278 278 279 279 280 281 282 283 284 285 285 286 287 287 287 287
208 210 212 213 213 212 212 212 212 212 213 213 214 214 214 214 215 216 217 218 220 222 224 226 228 230 232 235 237 240 242 244 246 248 250 252 253 255 257 259 260 261 263 264 266 267 269 270 271 273 274 275 276 277 277 279 280 280 281 281 281 281 281 281 281 281 281 280 280 280 279 279 280 281 282 283 283 284 284 285 285 286 286 287 287 287
Height
3103 3103 3102 3101 3101 3100 3100 3099 3099 3098 3097 3097 3096 3096 3095 3095 3094 3094 3094 3093 3093 3093 3093 3093 3092 3092 3092 3091 3091 3091 3092 3092 3092 3092 3091 3091 3090 3089 3088 3088 3087 3087 3087 3086 3086 3085 3085 3085 3085 3085 3085 3085 3084 3084 3084 3084 3085 3085 3085 3086 3086 3086 3086 3087 3087 3087 3087 3088 3088 3088 3088 3088 3088 3089 3089 3089 3089 3090 3090 3090 3090 3090 3090 3090 3090 3090
3101 3101 3100 3100 3099 3098 3097 3097 3097 3096 3095 3095 3094 3094 3094 3093 3092 3092 3092 3091 3091 3091 3091 3091 3091 3090 3090 3090 3090 3090 3090 3090 3090 3090 3089 3089 3088 3087 3086 3086 3086 3085 3085 3084 3084 3084 3083 3083 3083 3083 3083 3083 3083 3083 3083 3083 3084 3084 3084 3085 3085 3086 3086 3086 3086 3086 3087 3087 3087 3087 3087 3087 3087 3088 3088 3088 3088 3089 3089 3089 3089 3089 3089 3089 3089 3089
3099 3098 3098 3098 3097 3096 3096 3095 3095 3094 3094 3093 3092 3092 3091 3091 3091 3091 3090 3090 3090 3090 3090 3090 3089 3089 3088 3088 3088 3088 3088 3088 3088 3088 3087 3087 3086 3085 3084 3084 3084 3083 3083 3083 3082 3082 3082 3082 3082 3082 3081 3081 3081 3082 3082 3082 3083 3083 3084 3084 3084 3085 3085 3085 3085 3086 3086 3086 3086 3086 3086 3086 3087 3087 3087 3087 3087 3087 3088 3088 3088 3088 3088 3088 3088 3088
3097 3096 3096 3095 3095 3095 3094 3093 3092 3092 3091 3091 3091 3090 3090 3090 3089 3089 3088 3088 3088 3088 3088 3088 3087 3087 3087 3086 3086 3086 3086 3086 3086 3086 3086 3085 3084 3083 3082 3082 3082 3082 3081 3081 3081 3081 3081 3081 3081 3080 3080 3081 3081 3081 3081 3081 3082 3082 3083 3083 3083 3084 3084 3084 3084 3085 3085 3085 3085 3085 3086 3086 3086 3086 3086 3086 3086 3086 3087 3087 3087 3087 3087 3087 3087 3087
3095 3094 3093 3093 3093 3092 3092 3091 3091 3090 3090 3089 3089 3089 3088 3088 3087 3087 3086 3086 3086 3086 3086 3086 3086 3085 3085 3084 3084 3084 3084 3084 3084 3084 3083 3083 3082 3081 3081 3081 3080 3080 3080 3080 3079 3079 3079 3079 3079 3079 3079 3079 3080 3080 3080 3081 3081 3081 3082 3082 3082 3083 3083 3083 3083 3084 3084 3084 3084 3085 3085 3085 3085 3085 3085 3085 3086 3086 3086 3086 3086 3086 3086 3086 3086 3086
3093 3092 3092 3091 3091 3090 3090 3089 3089 3088 3088 3087 3087 3087 3086 3086 3085 3085 3085 3084 3084 3084 3084 3084 3084 3083 3083 3082 3082 3081 3082 3082 3082 3082 3081 3081 3080 3079 3079 3079 3079 3078 3078 3078 3078 3078 3078 3078 3078 3078 3078 3078 3079 3079 3080 3080 3080 3081 3081 3081 3081 3082 3082 3082 3082 3083 3083 3083 3083 3084 3084 3084 3084 3084 3084 3084 3085 3085 3085 3085 3085 3085 3085 3085 3085 3086
3090 3090 3090 3089 3089 3088 3088 3087 3087 3086 3086 3086 3085 3085 3085 3084 3084 3083 3083 3082 3082 3082 3082 3081 3081 3081 3081 3080 3080 3080 3080 3080 3080 3080 3079 3078 3078 3078 3077 3077 3077 3077 3077 3077 3077 3077 3077 3077 3077 3077 3077 3077 3078 3078 3079 3079 3079 3080 3080 3080 3081 3081 3081 3081 3081 3082 3082 3082 3082 3083 3083 3083 3083 3083 3083 3084 3084 3084 3084 3084 3084 3084 3084 3084 3084 3085
3088 3087 3087 3087 3086 3086 3086 3085 3085 3085 3084 3083 3083 3083 3082 3082 3082 3081 3081 3081 3080 3080 3080 3079 3079 3079 3079 3078 3078 3077 3077 3078 3077 3077 3077 3076 3076 3076 3076 3076 3076 3076 3076 3076 3076 3076 3076 3076 3076 3076 3076 3077 3077 3077 3078 3078 3078 3079 3079 3079 3080 3080 3080 3081 3081 3081 3081 3081 3081 3082 3082 3082 3082 3082 3082 3083 3083 3083 3083 3083 3083 3083 3083 3083 3083 3084
3085 3085 3085 3085 3084 3084 3083 3083 3083 3083 3082 3081 3081 3080 3080 3080 3079 3079 3079 3079 3078 3078 3077 3077 3077 3077 3076 3076 3076 3075 3075 3075 3075 3075 3075 3075 3075 3075 3075 3075 3074 3074 3074 3074 3074 3074 3075 3075 3075 3075 3076 3076 3076 3076 3077 3077 3077 3078 3078 3078 3079 3079 3079 3080 3080 3080 3080 3081 3081 3081 3081 3081 3081 3081 3081 3082 3082 3082 3082 3082 3082 3082 3082 3082 3082 3082
3083 3082 3082 3082 3082 3081 3081 3081 3081 3081 3080 3079 3079 3078 3078 3078 3077 3077 3076 3076 3076 3076 3076 3075 3075 3075 3074 3074 3074 3073 3073 3073 3073 3073 3073 3073 3073 3073 3073 3073 3073 3073 3073 3073 3073 3073 3074 3074 3074 3074 3075 3075 3075 3076 3076 3076 3076 3077 3077 3078 3078 3078 3078 3079 3079 3079 3079 3080 3080 3080 3080 3080 3081 3081 3081 3081 3081 3081 3081 3081 3081 3081 3081 3081 3081 3081
3080 3080 3080 3079 3079 3079 3079 3079 3078 3078 3078 3077 3077 3076 3076 3076 3076 3075 3074 3074 3074 3074 3074 3073 3073 3073 3072 3072 3072 3071 3071 3071 3071 3071 3071 3071 3071 3072 3072 3072 3072 3072 3072 3072 3072 3072 3073 3073 3073 3073 3074 3074 3075 3075 3075 3076 3076 3076 3076 3077 3077 3077 3077 3078 3078 3078 3078 3079 3079 3079 3079 3079 3079 3080 3080 3080 3080 3080 3080 3080 3080 3080 3080 3080 3080 3081
3077 3077 3077 3077 3077 3077 3076 3076 3076 3076 3076 3075 3075 3074 3074 3074 3074 3073 3072 3072 3072 3072 3072 3071 3071 3071 3071 3070 3070 3070 3070 3070 3070 3070 3070 3070 3070 3070 3070 3070 3071 3071 3071 3071 3071 3071 3072 3072 3072 3072 3073 3073 3074 3074 3074 3075 3075 3075 3076 3076 3076 3076 3076 3077 3077 3077 3077 3078 3078 3078 3078 3078 3078 3079 3079 3079 3079 3079 3079 3079 3079 3079 3079 3079 3079 3079
3075 3075 3075 3074 3074 3074 3074 3074 3074 3073 3073 3073 3073 3072 3071 3071 3071 3071 3070 3070 3070 3070 3070 3069 3069 3069 3069 3068 3068 3068 3068 3068 3068 3068 3068 3068 3069 3069 3069 3069 3069 3069 3070 3070 3070 3071 3071 3071 3071 3071 3072 3072 3073 3073 3073 3074 3074 3074 3075 3075 3075 3075 3076 3076 3076 3076 3076 3077 3077 3077 3077 3077 3077 3077 3078 3078 3078 3078 3078 3078 3078 3078 3078 3078 3078 3078
3072 3072 3072 3072 3072 3072 3072 3071 3071 3071 3071 3071 3071 3070 3069 3069 3069 3068 3068 3068 3068 3068 3068 3067 3067 3067 3067 3067 3067 3066 3066 3066 3066 3067 3067 3067 3067 3067 3067 3067 3068 3068 3068 3069 3069 3069 3070 3070 3070 3071 3071 3071 3072 3072 3072 3073 3073 3073 3074 3074 3074 3074 3075 3075 3075 3075 3076 3076 3076 3076 3076 3076 3076 3076 3076 3077 3077 3077 3077 3077 3077 3077 3077 3077 3077 3077
3070 3070 3070 3069 3069 3069 3069 3069 3069 3068 3068 3068 3068 3067 3067 3067 3066 3066 3066 3066 3066 3066 3066 3065 3065 3065 3065 3065 3065 3065 3065 3065 3065 3065 3066 3066 3066 3066 3066 3066 3066 3067 3067 3067 3068 3068 3069 3069 3069 3070 3070 3071 3071 3071 3071 3072 3072 3072 3073 3073 3073 3073 3074 3074 3074 3074 3074 3075 3075 3075 3075 3075 3075 3076 3076 3076 3076 3076 3076 3076 3076 3076 3076 3076 3076 3076
3068 3067 3067 3067 3067 3067 3067 3066 3066 3066 3066 3065 3065 3065 3065 3064 3064 3064 3064 3064 3064 3064 3063 3063 3063 3063 3063 3063 3063 3063 3063 3064 3064 3064 3064 3064 3064 3064 3065 3065 3065 3066 3066 3066 3067 3067 3068 3068 3068 3069 3069 3070 3070 3070 3071 3071 3071 3071 3071 3072 3072 3072 3072 3073 3073 3073 3073 3074 3074 3074 3074 3074 3074 3074 3074 3074 3075 3075 3075 3075 3075 3075 3075 3075 3075 3075
3065 3065 3065 3064 3064 3064 3064 3064 3064 3063 3063 3063 3063 3063 3062 3062 3062 3061 3061 3062 3062 3061 3061 3061 3061 3061 3061 3062 3062 3062 3062 3062 3062 3062 3062 3063 3063 3063 3063 3064 3064 3065 3065 3066 3066 3066 3067 3067 3067 3068 3068 3068 3069 3069 3070 3070 3070 3070 3071 3071 3071 3071 3071 3072 3072 3072 3072 3072 3073 3073 3073 3073 3073 3073 3073 3073 3073 3073 3073 3074 3074 3074 3074 3074 3074 3074
3062 3062 3062 3061 3061 3061 3061 3061 3061 3061 3061 3060 3060 3060 3060 3060 3060 3060 3060 3060 3060 3060 3059 3060 3060 3060 3060 3060 3060 3060 3060 3060 3061 3061 3061 3061 3061 3062 3062 3062 3063 3063 3064 3065 3065 3065 3066 3066 3066 3067 3067 3067 3068 3068 3068 3069 3069 3069 3069 3070 3070 3070 3070 3071 3071 3071 3071 3071 3071 3071 3072 3072 3072 3072 3072 3072 3072 3072 3072 3072 3072 3072 3073 3073 3073 3073
3060 3060 3059 3059 3059 3058 3058 3059 3059 3058 3058 3058 3058 3058 3057 3057 3057 3057 3057 3057 3057 3057 3057 3058 3058 3058 3058 3058 3058 3058 3058 3059 3059 3059 3060 3060 3060 3061 3061 3061 3062 3062 3063 3064 3064 3064 3065 3065 3065 3066 3066 3066 3067 3067 3067 3067 3068 3068 3068 3068 3069 3069 3069 3069 3070 3070 3070 3070 3070 3071 3071 3071 3071 3071 3071 3071 3071 3071 3071 3071 3071 3071 3071 3071 3071 3071
3056 3056 3056 3056 3056 3056 3056 3056 3056 3056 3056 3056 3055 3055 3055 3055 3055 3055 3055 3055 3055 3055 3056 3056 3056 3056 3056 3056 3056 3056 3057 3057 3058 3058 3058 3059 3059 3059 3060 3060 3061 3061 3062 3062 3063 3063 3064 3064 3064 3065 3065 3065 3066 3066 3066 3066 3066 3067 3067 3067 3067 3068 3068 3068 3068 3069 3069 3069 3069 3069 3069 3070 3070 3070 3070 3070 3070 3070 3070 3070 3070 3070 3070 3070 3070 3070
3054 3054 3054 3054 3053 3053 3053 3053 3054 3054 3053 3053 3053 3053 3053 3053 3053 3053 3053 3053 3053 3053 3054 3054 3054 3054 3055 3055 3055 3055 3055 3056 3056 3056 3057 3057 3058 3058 3059 3059 3060 3061 3061 3061 3062 3062 3062 3063 3063 3063 3064 3064 3064 3065 3065 3065 3066 3066 3066 3066 3066 3066 3067 3067 3067 3067 3067 3068 3068 3068 3068 3068 3068 3069 3069 3069 3069 3069 3069 3069 3069 3069 3069 3069 3069 3069
3051 3051 3051 3051 3051 3051 3051 3051 3051 3051 3051 3051 3051 3051 3051 3051 3051 3051 3051 3051 3051 3051 3052 3052 3052 3053 3053 3053 3053 3054 3054 3054 3055 3055 3056 3056 3056 3057 3058 3058 3059 3059 3060 3061 3061 3061 3061 3062 3062 3062 3063 3063 3063 3064 3064 3064 3064 3065 3065 3065 3065 3065 3066 3066 3066 3066 3066 3066 3067 3067 3067 3067 3067 3067 3067 3067 3067 3068 3068 3068 3068 3068 3068 3068 3068 3068
3047 3048 3048 3048 3048 3048 3048 3048 3048 3048 3048 3048 3048 3048 3048 3048 3049 3049 3049 3049 3049 3050 3050 3050 3051 3051 3051 3051 3052 3052 3053 3053 3054 3054 3054 3055 3056 3056 3056 3057 3058 3058 3059 3059 3060 3060 3060 3061 3061 3061 3062 3062 3062 3062 3063 3063 3063 3063 3064 3064 3064 3064 3064 3065 3065 3065 3065 3065 3066 3066 3066 3066 3066 3066 3066 3066 3066 3066 3066 3066 3066 3066 3066 3066 3066 3066
3045 3045 3045 3046 3046 3046 3046 3046 3046 3046 3046 3046 3046 3046 3046 3046 3046 3047 3047 3047 3047 3048 3048 3049 3049 3049 3050 3050 3051 3051 3051 3052 3052 3053 3053 3054 3055 3055 3056 3056 3057 3057 3058 3058 3059 3059 3059 3060 3060 3060 3061 3061 3061 3061 3061 3062 3062 3062 3062 3062 3063 3063 3063 3063 3063 3064 3064 3064 3064 3064 3064 3065 3065 3065 3065 3065 3065 3065 3065 3065 3065 3065 3065 3065 3065 3065
3042 3042 3042 3043 3043 3043 3043 3043 3043 3044 3044 3044 3044 3044 3044 3044 3044 3045 3045 3045 3046 3046 3046 3047 3047 3048 3048 3049 3049 3050 3050 3051 3051 3052 3052 3053 3053 3054 3055 3055 3056 3056 3057 3057 3057 3058 3058 3059 3059 3059 3060 3060 3060 3060 3061 3061 3061 3061 3061 3061 3061 3062 3062 3062 3062 3062 3063 3063 3063 3063 3063 3063 3063 3063 3063 3063 3063 3063 3063 3063 3063 3063 3063 3063 3063 3063
3039 3039 3040 3040 3040 3041 3041 3041 3041 3041 3041 3041 3041 3041 3042 3042 3042 3042 3043 3043 3044 3044 3045 3045 3046 3046 3047 3047 3048 3049 3049 3050 3050 3051 3051 3052 3052 3053 3053 3054 3055 3055 3056 3056 3056 3057 3057 3057 3058 3058 3058 3059 3059 3059 3059 3059 3060 3060 3060 3060 3060 3061 3061 3061 3061 3061 3061 3061 3061 3061 3062 3062 3062 3062 3062 3062 3062 3062 3062 3061 3061 3061 3061 3061 3061 3061
3036 3037 3037 3037 3038 3038 3038 3038 3039 3039 3039 3039 3039 3039 3040 3040 3040 3041 3041 3041 3042 3042 3043 3044 3045 3045 3046 3046 3047 3047 3048 3049 3049 3050 3050 3051 3051 3052 3052 3053 3054 3054 3054 3055 3055 3056 3056 3056 3057 3057 3057 3057 3057 3058 3058 3058 3058 3058 3059 3059 3059 3059 3059 3059 3060 3060 3060 3060 3060 3060 3060 3060 3060 3060 3060 3060 3060 3060 3060 3060 3060 3060 3060 3060 3060 3060
3034 3034 3035 3035 3035 3036 3036 3036 3036 3036 3037 3037 3037 3037 3038 3038 3038 3039 3039 3040 3040 3041 3042 3042 3043 3044 3044 3045 3046 3046 3047 3048 3048 3049 3049 3050 3050 3051 3051 3052 3052 3053 3053 3054 3054 3054 3055 3055 3055 3056 3056 3056 3056 3056 3057 3057 3057 3057 3057 3057 3058 3058 3058 3058 3058 3058 3058 3058 3059 3059 3059 3059 3059 3059 3059 3059 3059 3059 3058 3058 3058 3058 3058 3058 3058 3058
3031 3032 3032 3032 3033 3033 3033 3034 3034 3034 3035 3035 3035 3035 3036 3036 3036 3037 3037 3038 3039 3040 3041 3041 3042 3042 3043 3044 3045 3046 3046 3047 3047 3047 3048 3049 3049 3050 3050 3051 3051 3052 3052 3052 3053 3053 3053 3054 3054 3054 3055 3055 3055 3055 3056 3056 3056 3056 3056 3056 3056 3056 3056 3056 3057 3057 3057 3057 3057 3057 3057 3057 3057 3057 3057 3057 3057 3057 3057 3057 3056 3056 3056 3056 3056 3056
3029 3029 3030 3030 3031 3031 3031 3031 3032 3032 3032 3033 3033 3033 3034 3034 3035 3036 3036 3037 3038 3039 3039 3040 3041 3041 3042 3043 3044 3045 3045 3046 3046 3046 3047 3047 3048 3049 3049 3050 3050 3051 3051 3051 3051 3052 3052 3052 3053 3053 3053 3053 3054 3054 3054 3054 3054 3054 3055 3055 3055 3055 3055 3055 3055 3055 3055 3055 3055 3055 3055 3056 3056 3056 3056 3055 3055 3055 3055 3055 3055 3055 3055 3055 3055 3055
3027 3027 3028 3028 3028 3029 3029 3029 3030 3030 3031 3031 3031 3031 3032 3032 3033 3034 3035 3036 3037 3037 3038 3039 3040 3041 3041 3042 3043 3043 3044 3044 3045 3045 3046 3046 3047 3047 3048 3048 3049 3049 3050 3050 3050 3051 3051 3051 3051 3052 3052 3052 3052 3052 3052 3053 3053 3053 3053 3053 3053 3053 3053 3053 3053 3053 3054 3054 3054 3054 3054 3054 3054 3054 3054 3054 3054 3054 3053 3053 3053 3053 3053 3053 3053 3053
3025 3025 3026 3026 3026 3026 3027 3027 3028 3028 3029 3029 3029 3030 3031 3031 3032 3033 3034 3035 3036 3036 3037 3038 3039 3039 3040 3041 3041 3042 3042 3043 3044 3044 3045 3045 3046 3046 3047 3047 3047 3048 3048 3049 3049 3049 3050 3050 3050 3050 3051 3051 3051 3051 3051 3051 3051 3051 3051 3051 3051 3051 3051 3051 3052 3052 3052 3052 3052 3052 3052 3052 3052 3052 3052 3052 3052 3052 3052 3052 3051 3051 3051 3051 3051 3051
3022 3023 3023 3024 3024 3025 3025 3026 3026 3026 3027 3027 3028 3028 3029 3030 3031 3032 3033 3034 3035 3035 3036 3037 3037 3038 3039 3040 3040 3041 3041 3042 3042 3043 3043 3044 3045 3045 3046 3046 3046 3047 3047 3047 3048 3048 3048 3048 3049 3049 3049 3049 3050 3050 3050 3050 3050 3050 3050 3050 3050 3050 3050 3050 3050 3050 3050 3050 3050 3050 3050 3050 3050 3050 3050 3050 3050 3050 3050 3050 3050 3050 3050 3050 3050 3050
3020 3021 3021 3022 3022 3023 3023 3024 3024 3025 3025 3026 3026 3027 3028 3029 3030 3031 3032 3032 3033 3034 3035 3036 3036 3037 3038 3038 3039 3040 3040 3041 3041 3042 3042 3043 3043 3044 3044 3045 3045 3046 3046 3046 3046 3046 3047 3047 3047 3047 3048 3048 3048 3048 3048 3048 3048 3048 3048 3048 3048 3048 3048 3048 3048 3048 3048 3048 3048 3049 3049 3049 3049 3049 3049 3049 3049 3049 3048 3048 3048 3048 3048 3048 3048 3048
3018 3019 3019 3020 3020 3021 3021 3022 3022 3023 3024 3025 3026 3026 3027 3028 3029 3030 3031 3031 3032 3033 3034 3035 3035 3036 3036 3037 3038 3038 3039 3040 3040 3041 3041 3042 3042 3043 3043 3043 3044 3044 3045 3045 3045 3045 3046 3046 3046 3046 3046 3046 3046 3046 3047 3047 3047 3047 3047 3047 3047 3047 3047 3047 3047 3047 3047 3047 3047 3047 3047 3047 3047 3047 3047 3047 3047 3047 3047 3046 3046 3046 3046 3046 3046 3046
3016 3017 3017 3018 3018 3019 3020 3020 3021 3022 3023 3024 3024 3025 3026 3027 3028 3029 3030 3030 3031 3032 3032 3033 3034 3035 3035 3036 3036 3037 3038 3038 3039 3039 3040 3041 3041 3041 3042 3042 3043 3043 3043 3044 3044 3044 3044 3044 3045 3045 3045 3045 3045 3045 3045 3045 3045 3045 3045 3045 3045 3045 3045 3045 3045 3045 3045 3046 3046 3046 3046 3046 3046 3046 3046 3046 3046 3045 3045 3045 3045 3044 3044 3044 3044 3044
3015 3015 3016 3016 3017 3017 3018 3019 3020 3021 3021 3022 3023 3024 3025 3026 3027 3028 3028 3029 3030 3031 3031 3032 3033 3033 3034 3035 3035 3036 3036 3037 3037 3038 3039 3039 3040 3040 3041 3041 3041 3042 3042 3042 3042 3043 3043 3043 3043 3043 3043 3044 3044 3044 3044 3044 3044 3044 3044 3044 3044 3044 3044 3044 3044 3044 3044 3044 3044 3044 3044 3044 3044 3044 3044 3044 3044 3044 3043 3043 3043 3043 3042 3042 3042 3041
3013 3013 3014 3015 3016 3016 3017 3018 3019 3020 3021 3021 3022 3023 3024 3025 3026 3026 3027 3028 3029 3029 3030 3031 3031 3032 3033 3033 3034 3035 3035 3036 3036 3037 3037 3038 3038 3039 3039 3040 3040 3041 3041 3041 3041 3041 3041 3042 3042 3042 3042 3042 3042 3042 3042 3042 3042 3042 3042 3042 3042 3042 3042 3042 3042 3042 3042 3042 3042 3042 3042 3042 3042 3042 3042 3042 3042 3042 3041 3041 3041 3041 3041 3040 3040 3040
3011 3012 3012 3013 3014 3015 3016 3016 3017 3019 3019 3020 3021 3022 3023 3024 3024 3025 3026 3026 3027 3028 3029 3029 3030 3031 3031 3032 3033 3033 3034 3035 3035 3036 3036 3036 3037 3037 3038 3038 3039 3039 3039 3040 3040 3040 3040 3040 3041 3041 3041 3041 3041 3041 3041 3041 3041 3041 3041 3041 3041 3041 3041 3041 3041 3041 3041 3041 3041 3041 3040 3040 3040 3040 3040 3040 3040 3040 3040 3039 3039 3039 3039 3038 3038 3038
3010 3010 3011 3012 3013 3014 3015 3016 3016 3017 3018 3019 3020 3021 3021 3022 3023 3024 3024 3025 3026 3026 3027 3028 3029 3029 3030 3031 3031 3032 3033 3033 3034 3034 3035 3036 3036 3036 3037 3037 3037 3038 3038 3038 3039 3039 3039 3039 3039 3039 3039 3039 3039 3039 3039 3039 3039 3039 3039 3039 3039 3039 3039 3039 3039 3039 3039 3039 3039 3039 3039 3038 3038 3038 3038 3038 3038 3038 3038 3037 3037 3037 3037 3036 3036 3036
3008 3009 3010 3010 3011 3012 3013 3014 3015 3016 3017 3018 3019 3020 3020 3021 3022 3022 3023 3024 3025 3025 3026 3027 3027 3028 3029 3030 3030 3031 3031 3032 3033 3033 3034 3034 3035 3035 3036 3036 3036 3036 3037 3037 3037 3037 3037 3038 3038 3038 3038 3038 3038 3038 3037 3037 3037 3037 3037 3037 3037 3037 3037 3037 3037 3037 3037 3037 3037 3037 3037 3037 3036 3036 3036 3036 3036 3036 3036 3036 3035 3035 3035 3035 3034 3034
3006 3007 3008 3009 3010 3011 3012 3013 3014 3015 3016 3016 3017 3018 3019 3020 3021 3021 3022 3023 3023 3024 3025 3026 3026 3027 3028 3028 3029 3030 3030 3031 3031 3032 3032 3033 3033 3034 3034 3035 3035 3035 3036 3036 3036 3036 3036 3036 3036 3036 3036 3036 3036 3036 3036 3036 3036 3036 3036 3036 3036 3036 3036 3036 3036 3036 3036 3036 3036 3036 3035 3035 3035 3035 3034 3034 3034 3034 3033 3033 3033 3033 3033 3032 3032 3032
3005 3006 3006 3007 3008 3009 3010 3011 3012 3013 3015 3016 3016 3017 3018 3018 3019 3020 3021 3021 3022 3023 3023 3024 3025 3026 3026 3027 3028 3029 3029 3030 3030 3031 3031 3032 3032 3032 3033 3033 3033 3034 3034 3034 3034 3035 3035 3035 3035 3035 3035 3035 3035 3035 3035 3035 3034 3035 3035 3035 3035 3035 3034 3034 3034 3034 3034 3034 3034 3034 3033 3033 3033 3032 3032 3032 3031 3031 3031 3031 3031 3031 3030 3030 3030 3030
3003 3004 3005 3006 3007 3008 3009 3010 3011 3012 3013 3014 3015 3016 3016 3017 3018 3018 3019 3020 3021 3021 3022 3023 3024 3025 3025 3026 3026 3027 3028 3028 3029 3029 3030 3030 3031 3031 3031 3032 3032 3032 3032 3033 3033 3033 3033 3033 3033 3033 3033 3033 3033 3033 3033 3033 3033 3033 3033 3033 3033 3033 3033 3033 3032 3032 3032 3032 3032 3032 3031 3031 3031 3031 3030 3030 3029 3029 3029 3029 3028 3028 3028 3028 3028 3027
3002 3003 3004 3005 3006 3007 3008 3009 3010 3011 3012 3013 3014 3014 3015 3016 3016 3017 3018 3018 3019 3020 3021 3022 3022 3023 3024 3025 3025 3026 3026 3027 3028 3028 3028 3029 3029 3030 3030 3030 3030 3031 3031 3031 3031 3031 3031 3031 3031 3032 3032 3032 3031 3031 3031 3031 3031 3031 3031 3031 3032 3032 3031 3031 3031 3031 3030 3030 3030 3030 3029 3029 3029 3029 3028 3028 3027 3027 3027 3026 3026 3026 3026 3026 3025 3025
3001 3001 3002 3003 3005 3006 3006 3007 3008 3010 3011 3011 3012 3013 3014 3014 3015 3016 3016 3017 3018 3019 3020 3020 3021 3022 3023 3023 3024 3025 3025 3026 3026 3026 3027 3027 3027 3028 3028 3028 3029 3029 3029 3029 3030 3030 3030 3030 3030 3030 3030 3030 3030 3030 3030 3030 3030 3030 3030 3030 3030 3030 3030 3030 3029 3029 3029 3028 3028 3028 3027 3027 3027 3026 3026 3026 3026 3025 3025 3024 3024 3024 3023 3023 3023 3023
2999 3000 3001 3002 3003 3004 3005 3006 3007 3008 3009 3010 3011 3012 3012 3013 3014 3014 3015 3016 3016 3017 3018 3019 3020 3021 3021 3022 3022 3023 3024 3024 3025 3025 3025 3026 3026 3026 3026 3027 3027 3027 3027 3028 3028 3028 3028 3028 3028 3028 3028 3028 3028 3027 3027 3027 3028 3028 3028 3028 3028 3028 3028 3027 3027 3027 3027 3026 3026 3026 3025 3025 3025 3024 3024 3024 3023 3023 3022 3022 3021 3021 3021 3021 3021 3021
2998 2999 3000 3001 3002 3003 3004 3005 3006 3007 3008 3009 3010 3010 3011 3012 3012 3013 3014 3014 3015 3016 3017 3018 3018 3019 3020 3020 3021 3021 3022 3022 3023 3023 3024 3024 3024 3025 3025 3025 3025 3026 3026 3026 3026 3026 3026 3026 3026 3026 3026 3026 3026 3026 3026 3026 3026 3026 3026 3026 3026 3026 3026 3025 3025 3025 3025 3025 3024 3024 3023 3023 3022 3022 3022 3021 3021 3021 3020 3020 3019 3019 3019 3018 3018 3018
2997 2998 2999 3000 3001 3001 3002 3003 3004 3005 3006 3007 3008 3009 3010 3010 3011 3011 3012 3013 3014 3015 3015 3016 3017 3018 3018 3019 3019 3020 3020 3021 3021 3021 3022 3022 3023 3023 3023 3023 3024 3024 3024 3024 3024 3024 3024 3024 3024 3024 3024 3024 3024 3024 3024 3023 3023 3024 3024 3023 3023 3023 3023 3023 3023 3023 3023 3023 3022 3022 3021 3021 3021 3020 3020 3019 3019 3018 3018 3018 3017 3016 3016 3016 3016 3015
2996 2996 2998 2998 2999 3000 3001 3002 3003 3004 3005 3006 3006 3007 3008 3009 3010 3010 3011 3011 3012 3013 3014 3015 3016 3016 3017 3017 3018 3018 3019 3019 3020 3020 3020 3021 3021 3021 3021 3022 3022 3022 3022 3022 3022 3022 3022 3022 3022 3022 3022 3022 3022 3022 3022 3021 3021 3021 3021 3021 3021 3021 3021 3021 3021 3021 3021 3021 3020 3020 3019 3019 3018 3018 3017 3017 3017 3016 3016 3015 3015 3014 3013 3013 3013 3012
2995 2996 2996 2997 2998 2999 3000 3001 3001 3002 3003 3004 3005 3006 3006 3007 3008 3009 3009 3010 3011 3011 3012 3013 3014 3015 3015 3016 3016 3017 3017 3017 3018 3018 3018 3019 3019 3019 3020 3020 3020 3020 3020 3021 3021 3021 3021 3021 3020 3020 3019 3020 3020 3020 3020 3020 3019 3019 3018 3018 3018 3018 3018 3018 3018 3018 3018 3018 3018 3017 3017 3016 3016 3016 3015 3015 3014 3014 3014 3013 3012 3012 3011 3011 3010 3010